Starlink 1570

operational
NORAD ID: 46059 Int'l Des: 2020-055 Owner: SPXS Country: US Constellation: starlink
LEOCIRCULARSTARLINK_TYPE

关于 Starlink 1570

正在加载描述...

实时位置

正在加载3D地球...

即将过境

高度历史

Altitude vs Time

uPlot chart will show altitude changes over time

两行轨道根数

1 46059U 20055AJ 26036.61055414 .00000044 00000-0 21880-4 0 9990
2 46059 53.0556 260.6252 0001589 87.9774 272.1397 15.06396419304156
Epoch: Feb 5, 2026 • Age: 9 hours

当前状态

高度 550.7 km
速度 7.59 km/s
星下点 -12.13°S, 111.35°E
发射日期 Aug 7, 2020
运行时间 5.4 years
类型 internet

技术详情

分类 Payload
质量 260.00 kg
干质量 248.00 kg
总质量 260.00 kg
长度 0.20 m
直径 2.80 m
跨度 9.00 m
形状 Box + pan
制造商 SPXS
平台类型 Starlink
阶段状态 In Orbit
所有者/国家 SPXS/US

大型星座

Loading constellations...